Regional Weather Roundup
Issued by NWS

Home | Current Version | Previous Version | Text Only | Print | Product List | Glossary On
Versions: 1 2 3 4 5 6 7 8 9 10 11 12 13 14 15 16 17 18 19 20 21 22 23 24 25 26 27 28 29 30 31 32 33 34 35 36 37 38 39 40 41 42 43 44 45 46 47 48 49 50
000
ASUS45 KCYS 071010
RWRWY

WYOMING REGIONAL WEATHER ROUNDUP
NATIONAL WEATHER SERVICE CHEYENNE WY
300 AM MST WED DEC 07 2016

NOTE:  "FAIR" INDICATES FEW OR NO CLOUDS BELOW 12,000 FEET
WITH NO SIGNIFICANT WEATHER AND/OR OBSTRUCTIONS TO VISIBILITY.

WYZ001-071100-
YELLOWSTONE NATIONAL PARK

CITY           SKY/WX    TMP DP  RH WIND       PRES   REMARKS
LK YELLOWSTONE   N/A     -7  -9  91 CALM      29.88R
W YELLOWSTONE  NOT AVBL

$$
WYZ002>013-054>058-071-098>099-071100-
NORTHERN WYOMING

CITY           SKY/WX    TMP DP  RH WIND       PRES   REMARKS
JACKSON        FAIR     -11 -11 100 N7        29.95R WCI -26
CODY           LGT SNOW   3  -2  79 N10       30.12R WCI -12
GREYBULL       CLOUDY     7   1  76 NW10      30.17R WCI  -8
WORLAND        CLOUDY    10   4  76 NW7       30.15R WCI  -1
SHERIDAN       CLOUDY     0  -6  76 W13       30.23R WCI -18
BUFFALO        CLOUDY     0  -6  76 N17G23    30.12R WCI -21
GILLETTE       FAIR      -4  -6  91 NW6       30.15R WCI -16
HULETT         CLOUDY     3  -4  72 MISG      30.16R
NEWCASTLE      FAIR       1  -6  71 NW12      30.14R WCI -15

$$
WYZ014>020-022>026-101>103-071100-
CENTRAL WYOMING

CITY           SKY/WX    TMP DP  RH WIND       PRES   REMARKS
BIG PINEY      LGT SNOW   0  -4  83 CALM      29.90R FOG
PINEDALE       LGT SNOW   5   1  85 NW3       29.89R
DUBOIS         LGT SNOW  -4  -8  84 SW6       29.89R WCI -16
LANDER         LGT SNOW   6   2  83 NE5       30.03R FOG     WCI  -3
RIVERTON       CLOUDY     5   1  83 E5        30.04R WCI  -4
CASPER         CLOUDY    -5  -9  83 NE7       30.07R WCI -19
DOUGLAS        CLOUDY     1  -5  75 N3        30.10R

$$
WYZ021-027>030-104>119-071100-
SOUTHERN WYOMING

CITY           SKY/WX    TMP DP  RH WIND       PRES   REMARKS
EVANSTON       MOCLDY     8   1  73 CALM      29.91R
FORT BRIDGER   MOSUNNY    9   3  78 W13       29.93R WCI  -7
ROCK SPRINGS   LGT SNOW   6   3  87 E8        29.92R FOG     WCI  -7
DIXON          CLOUDY    12   6  76 W5        29.93R WCI   4
RAWLINS        CLOUDY     3  -3  76 CALM      29.90R HAZE
SARATOGA       CLOUDY     5   1  85 NW6       29.88R WCI  -6
LARAMIE        FAIR       3  -4  72 SE9       29.80R WCI -12
CHEYENNE       LGT SNOW   5   0  79 N13       29.92R WCI -12
TORRINGTON     LGT SNOW   8   3  80 N9        30.09R WCI  -5
PINE BLUFFS    CLOUDY     9   5  85 N16G24    29.99R WCI  -9

$$



USA.gov is the U.S. government's official web portal to all federal, state and local government web resources and services.